sat.trackr.live / text

‹ back to catalog

YAOGAN-35 05B

NORAD 53761 · 2022-109B

PAYLOAD ACTIVE UNKNOWN

§ Identity

Operator
Country
PRC
Launch date
2022-09-06
Launch site
XICLF
Launch vehicle
Mass (kg)
RCS (m²)

External: N2YO · Heavens-Above · Gunter

§ Orbital elements

Epoch: 2026-05-25T04:20:37.686336Z

Period
93.65 min
Inclination
34.9779°
Eccentricity
0.0006576
Mean motion
15.37604529 rev/d
Perigee alt
448.7 km
Apogee alt
457.7 km
Semi-major
6,831.3 km
B*
4.4799e-4
RAAN
97.3645°
Arg perigee
309.0575°
Mean anomaly
50.9558°
Rev number
20,732

§ Raw data

YAOGAN-35 05B1 53761U 22109B   26145.18099174  .00017000  00000+0  44799-3 0  99962 53761  34.9779  97.3645 0006576 309.0575  50.9558 15.37604529207328

JSON: /api/v1/satellites/53761 · /tle

For live sub-satellite position, see the globe view (requires WebGL).

§ Visibility from observer

Set your observer location to see the next 7 days of passes ≥ 10°. The values pass through the URL so the page stays shareable.

No JS? Fill the form by hand. The geolocation button needs JavaScript.